COSMOS 2571

导读

**COSMOS 2571卫星**是独联体于2023年10月27日发射的军用卫星,隶属于俄罗斯"宇宙"(COSMOS)系列军事太空项目。该系列涵盖侦察、通信、导航等多种军事任务,是独联体战略太空能力的重要组成部分。截至2026年3月,卫星已在轨稳定运行超28个月,承担着常态化空间任务,为相关区域战略安全监测提供支撑。

基本信息
目录编号:
58172
目录名称:
COSMOS 2571
国际标识:
2023-165C
轨道中心:
EARTH
卫星名称:
COSMOS 2571
卫星全名:
--
卫星状态:
在轨 (已飞行991 天)
发射日期:
2023-10-27 UTC
国别 :
俄罗斯(独联体) (CIS)
星等 :
--
轨道信息
数据来源 国际轨道数据
星历时间: 2026-07-14T04:31:10+0800
11小时前
查看轨道信息
半长轴: 7281.173km
偏心率: 0.001893
轨道倾角: 67.147°
近地点辐角 298.389°
升交点赤经 222.490°
平近点角 61.529°
近地点: 889.252km
远地点: 916.82km
周期: 103.053分钟
每日圈数: 13.973358
详细信息
使用方式:
暂无
2D轨道图
3D轨道图
轨道高度分析图
轨道倾角分析图
轨道综合分析图
查看轨道综合分析图